FAB2019 SBCT-SBCO

Flight info

Callsign FAB2019
Flight time 1h 13m
Altitude FL200
Route SBCT SAVLU MDI TQA UBREG SBCO
Aircraft E120/M-VD/A

Departure

Time 2026-05-05 14:42
Airport Curitiba-Afonso Pena International Airport (SBCT)

Arrival

Time 2026-05-05 15:55
Airport Canoas Air Force Base (SBCO)
Time Latitude Longitude Altitude Speed Heading
2026-05-05 14:33 -25.53083 -49.17612 2993 ft 0 kts 259°
2026-05-05 14:35 -25.53083 -49.17613 2993 ft 0 kts 259°
2026-05-05 14:40 -25.53003 -49.17614 2993 ft 38 kts 30°
2026-05-05 14:40 -25.52850 -49.17656 2993 ft 26 kts 292°
2026-05-05 14:41 -25.52831 -49.17906 2993 ft 32 kts 278°
2026-05-05 14:41 -25.52725 -49.17988 2993 ft 37 kts 357°
2026-05-05 14:41 -25.52492 -49.17987 2993 ft 11 kts 31°
2026-05-05 14:41 -25.52488 -49.17960 2993 ft 0 kts 135°
2026-05-05 14:42 -25.52502 -49.17944 2993 ft 22 kts 135°
2026-05-05 14:42 -25.52945 -49.17439 2994 ft 152 kts 133°
2026-05-05 14:42 -25.53812 -49.16474 3254 ft 205 kts 135°
2026-05-05 14:42 -25.54940 -49.15369 3652 ft 222 kts 147°
2026-05-05 14:43 -25.56388 -49.14870 4036 ft 221 kts 174°
2026-05-05 14:43 -25.57951 -49.14891 4429 ft 229 kts 185°
2026-05-05 14:43 -25.59538 -49.15122 4808 ft 231 kts 189°
2026-05-05 14:43 -25.61124 -49.15437 5184 ft 233 kts 191°
2026-05-05 14:44 -25.62719 -49.15784 5561 ft 235 kts 191°
2026-05-05 14:44 -25.64322 -49.16140 5936 ft 236 kts 191°
2026-05-05 14:44 -25.65937 -49.16500 6312 ft 238 kts 191°
2026-05-05 14:44 -25.67561 -49.16860 6687 ft 239 kts 191°
2026-05-05 14:45 -25.69192 -49.17222 7061 ft 240 kts 190°
2026-05-05 14:45 -25.70846 -49.17583 7434 ft 244 kts 191°
2026-05-05 14:45 -25.72518 -49.17947 7812 ft 246 kts 191°
2026-05-05 14:45 -25.74203 -49.18313 8189 ft 248 kts 191°
2026-05-05 14:46 -25.75904 -49.18683 8565 ft 250 kts 191°
2026-05-05 14:46 -25.77612 -49.19054 8940 ft 252 kts 191°
2026-05-05 14:46 -25.79337 -49.19428 9315 ft 254 kts 192°
2026-05-05 14:46 -25.81073 -49.19804 9690 ft 256 kts 192°
2026-05-05 14:47 -25.82825 -49.20184 10065 ft 258 kts 192°
2026-05-05 14:47 -25.84592 -49.20567 10441 ft 260 kts 192°
2026-05-05 14:47 -25.86374 -49.20954 10816 ft 263 kts 193°
2026-05-05 14:47 -25.88171 -49.21344 11192 ft 265 kts 193°
2026-05-05 14:48 -25.89979 -49.21737 11568 ft 266 kts 193°
2026-05-05 14:48 -25.91797 -49.22132 11943 ft 267 kts 193°
2026-05-05 14:48 -25.93625 -49.22530 12319 ft 269 kts 193°
2026-05-05 14:48 -25.95461 -49.22929 12695 ft 270 kts 193°
2026-05-05 14:49 -25.97309 -49.23331 13071 ft 272 kts 193°
2026-05-05 14:49 -25.99168 -49.23736 13447 ft 273 kts 193°
2026-05-05 14:49 -26.00889 -49.24105 13782 ft 226 kts 194°
2026-05-05 14:49 -26.02522 -49.24470 14170 ft 255 kts 194°
2026-05-05 14:50 -26.04284 -49.24861 14559 ft 264 kts 194°
2026-05-05 14:50 -26.06114 -49.25260 14905 ft 270 kts 193°
2026-05-05 14:50 -26.07982 -49.25663 15166 ft 277 kts 193°
2026-05-05 14:50 -26.09896 -49.26013 15420 ft 281 kts 191°
2026-05-05 14:51 -26.10097 -49.26045 15446 ft 281 kts 191°
2026-05-05 14:51 -26.10904 -49.26169 15551 ft 283 kts 190°
2026-05-05 14:51 -26.12753 -49.26420 15780 ft 239 kts 189°
2026-05-05 14:51 -26.14131 -49.26579 15920 ft 158 kts 190°
2026-05-05 14:52 -26.15029 -49.26686 15547 ft 118 kts 193°
2026-05-05 14:52 -26.15942 -49.26829 14170 ft 150 kts 192°
2026-05-05 14:52 -26.16990 -49.26966 13207 ft 146 kts 190°
2026-05-05 14:52 -26.18091 -49.27116 12507 ft 209 kts 190°
2026-05-05 14:53 -26.19535 -49.27292 13194 ft 203 kts 188°
2026-05-05 14:53 -26.21083 -49.27454 13480 ft 245 kts 188°
2026-05-05 14:53 -26.22843 -49.27636 13757 ft 260 kts 187°
2026-05-05 14:53 -26.24656 -49.27818 14012 ft 264 kts 187°
2026-05-05 14:54 -26.26477 -49.28001 14263 ft 270 kts 187°
2026-05-05 14:54 -26.27247 -49.28079 14368 ft 272 kts 187°
2026-05-05 14:54 -26.28336 -49.28189 14515 ft 275 kts 187°
2026-05-05 14:55 -26.30252 -49.28383 14768 ft 279 kts 187°
2026-05-05 14:55 -26.32188 -49.28581 15020 ft 281 kts 187°
2026-05-05 14:55 -26.34139 -49.28780 15272 ft 283 kts 187°
2026-05-05 14:55 -26.36104 -49.28982 15523 ft 285 kts 187°
2026-05-05 14:56 -26.38078 -49.29186 15774 ft 286 kts 187°
2026-05-05 14:56 -26.40060 -49.29391 16025 ft 287 kts 187°
2026-05-05 14:56 -26.42048 -49.29597 16275 ft 288 kts 187°
2026-05-05 14:56 -26.44042 -49.29804 16526 ft 289 kts 187°
2026-05-05 14:57 -26.46038 -49.30012 16776 ft 289 kts 187°
2026-05-05 14:57 -26.48041 -49.30220 17026 ft 290 kts 187°
2026-05-05 14:57 -26.50047 -49.30429 17277 ft 290 kts 187°
2026-05-05 14:57 -26.52055 -49.30639 17527 ft 291 kts 187°
2026-05-05 14:58 -26.54066 -49.30849 17777 ft 291 kts 187°
2026-05-05 14:58 -26.56078 -49.31058 18027 ft 291 kts 187°
2026-05-05 14:58 -26.58092 -49.31268 18277 ft 291 kts 187°
2026-05-05 14:58 -26.60104 -49.31478 18527 ft 291 kts 187°
2026-05-05 14:59 -26.62119 -49.31689 18777 ft 291 kts 187°
2026-05-05 14:59 -26.64136 -49.31900 19027 ft 292 kts 187°
2026-05-05 14:59 -26.66153 -49.32112 19277 ft 292 kts 187°
2026-05-05 14:59 -26.68174 -49.32324 19527 ft 292 kts 187°
2026-05-05 15:00 -26.70196 -49.32536 19777 ft 293 kts 187°
2026-05-05 15:00 -26.71547 -49.32678 19943 ft 293 kts 187°
2026-05-05 15:00 -26.74260 -49.32963 20171 ft 296 kts 187°
2026-05-05 15:00 -26.76315 -49.33179 20236 ft 298 kts 187°
2026-05-05 15:01 -26.78382 -49.33396 20246 ft 299 kts 187°
2026-05-05 15:01 -26.80453 -49.33613 20245 ft 299 kts 187°
2026-05-05 15:01 -26.82519 -49.33830 20242 ft 299 kts 187°
2026-05-05 15:01 -26.84583 -49.34046 20241 ft 298 kts 187°
2026-05-05 15:02 -26.86643 -49.34262 20239 ft 298 kts 187°
2026-05-05 15:02 -26.88700 -49.34478 20237 ft 297 kts 187°
2026-05-05 15:02 -26.90755 -49.34693 20229 ft 297 kts 187°
2026-05-05 15:02 -26.92807 -49.34909 20221 ft 296 kts 187°
2026-05-05 15:03 -26.94854 -49.35124 20219 ft 296 kts 187°
2026-05-05 15:03 -26.96899 -49.35340 20219 ft 296 kts 187°
2026-05-05 15:03 -26.98943 -49.35555 20219 ft 296 kts 187°
2026-05-05 15:03 -27.00986 -49.35771 20219 ft 295 kts 187°
2026-05-05 15:04 -27.03028 -49.35986 20219 ft 295 kts 187°
2026-05-05 15:04 -27.05069 -49.36202 20218 ft 295 kts 187°
2026-05-05 15:04 -27.07109 -49.36417 20215 ft 295 kts 188°
2026-05-05 15:04 -27.09149 -49.36632 20205 ft 295 kts 188°
2026-05-05 15:05 -27.13221 -49.37061 20199 ft 294 kts 188°
2026-05-05 15:05 -27.15254 -49.37276 20199 ft 294 kts 188°
2026-05-05 15:05 -27.17286 -49.37492 20200 ft 294 kts 188°
2026-05-05 15:06 -27.19318 -49.37707 20200 ft 294 kts 188°
2026-05-05 15:06 -27.21348 -49.37922 20200 ft 294 kts 188°
2026-05-05 15:06 -27.23381 -49.38137 20199 ft 294 kts 188°
2026-05-05 15:06 -27.25412 -49.38351 20194 ft 294 kts 188°
2026-05-05 15:07 -27.27443 -49.38566 20186 ft 294 kts 188°
2026-05-05 15:07 -27.29472 -49.38781 20183 ft 293 kts 188°
2026-05-05 15:07 -27.31498 -49.38996 20183 ft 293 kts 188°
2026-05-05 15:07 -27.33524 -49.39211 20183 ft 293 kts 188°
2026-05-05 15:08 -27.35549 -49.39426 20185 ft 293 kts 188°
2026-05-05 15:08 -27.37574 -49.39641 20186 ft 293 kts 188°
2026-05-05 15:08 -27.39600 -49.39856 20186 ft 293 kts 188°
2026-05-05 15:08 -27.41625 -49.40071 20185 ft 293 kts 188°
2026-05-05 15:09 -27.43651 -49.40286 20179 ft 293 kts 188°
2026-05-05 15:09 -27.45675 -49.40501 20174 ft 293 kts 188°
2026-05-05 15:09 -27.47694 -49.40715 20173 ft 293 kts 188°
2026-05-05 15:09 -27.49721 -49.40931 20173 ft 292 kts 188°
2026-05-05 15:10 -27.51743 -49.41146 20174 ft 292 kts 188°
2026-05-05 15:10 -27.53763 -49.41361 20177 ft 292 kts 188°
2026-05-05 15:10 -27.55785 -49.41577 20177 ft 292 kts 188°
2026-05-05 15:10 -27.57807 -49.41792 20177 ft 292 kts 188°
2026-05-05 15:11 -27.59828 -49.42008 20177 ft 292 kts 188°
2026-05-05 15:11 -27.61851 -49.42223 20170 ft 292 kts 188°
2026-05-05 15:11 -27.63873 -49.42438 20167 ft 292 kts 188°
2026-05-05 15:11 -27.65892 -49.42653 20166 ft 292 kts 188°
2026-05-05 15:12 -27.67910 -49.42869 20166 ft 292 kts 188°
2026-05-05 15:12 -27.69930 -49.43085 20168 ft 292 kts 188°
2026-05-05 15:12 -27.71948 -49.43300 20171 ft 292 kts 188°
2026-05-05 15:12 -27.73965 -49.43516 20171 ft 292 kts 188°
2026-05-05 15:13 -27.75986 -49.43732 20171 ft 292 kts 188°
2026-05-05 15:13 -27.78005 -49.43947 20168 ft 292 kts 188°
2026-05-05 15:13 -27.80025 -49.44163 20160 ft 292 kts 189°
2026-05-05 15:13 -27.82042 -49.44378 20157 ft 292 kts 189°
2026-05-05 15:14 -27.84058 -49.44594 20156 ft 292 kts 189°
2026-05-05 15:14 -27.86074 -49.44810 20156 ft 292 kts 189°
2026-05-05 15:14 -27.88089 -49.45026 20162 ft 291 kts 188°
2026-05-05 15:14 -27.90104 -49.45243 20165 ft 292 kts 188°
2026-05-05 15:15 -27.92120 -49.45459 20172 ft 292 kts 188°
2026-05-05 15:15 -27.94136 -49.45676 20180 ft 292 kts 188°
2026-05-05 15:15 -27.96155 -49.45892 20179 ft 292 kts 188°
2026-05-05 15:15 -27.98176 -49.46108 20174 ft 292 kts 188°
2026-05-05 15:16 -28.00196 -49.46325 20173 ft 292 kts 188°
2026-05-05 15:16 -28.02215 -49.46542 20172 ft 292 kts 188°
2026-05-05 15:16 -28.04236 -49.46759 20173 ft 292 kts 188°
2026-05-05 15:16 -28.06253 -49.46976 20178 ft 292 kts 188°
2026-05-05 15:17 -28.08274 -49.47193 20180 ft 292 kts 188°
2026-05-05 15:17 -28.10246 -49.47661 20179 ft 289 kts 203°
2026-05-05 15:17 -28.12021 -49.48699 20185 ft 288 kts 212°
2026-05-05 15:17 -28.13689 -49.49943 20174 ft 287 kts 216°
2026-05-05 15:18 -28.15308 -49.51260 20155 ft 287 kts 218°
2026-05-05 15:18 -28.16905 -49.52600 20146 ft 286 kts 218°
2026-05-05 15:18 -28.18493 -49.53945 20141 ft 285 kts 218°
2026-05-05 15:18 -28.20078 -49.55286 20138 ft 285 kts 218°
2026-05-05 15:19 -28.21664 -49.56622 20136 ft 285 kts 218°
2026-05-05 15:19 -28.23253 -49.57954 20133 ft 284 kts 218°
2026-05-05 15:19 -28.24841 -49.59280 20131 ft 284 kts 218°
2026-05-05 15:19 -28.26431 -49.60602 20131 ft 284 kts 218°
2026-05-05 15:20 -28.28022 -49.61922 20130 ft 284 kts 218°
2026-05-05 15:20 -28.29614 -49.63239 20130 ft 284 kts 218°
2026-05-05 15:20 -28.31205 -49.64555 20130 ft 284 kts 218°
2026-05-05 15:20 -28.32797 -49.65870 20129 ft 284 kts 218°
2026-05-05 15:21 -28.34390 -49.67184 20129 ft 284 kts 218°
2026-05-05 15:21 -28.35983 -49.68498 20129 ft 284 kts 218°
2026-05-05 15:21 -28.37575 -49.69811 20128 ft 284 kts 218°
2026-05-05 15:21 -28.39167 -49.71125 20128 ft 284 kts 218°
2026-05-05 15:22 -28.40759 -49.72438 20127 ft 283 kts 218°
2026-05-05 15:22 -28.42352 -49.73752 20127 ft 283 kts 218°
2026-05-05 15:22 -28.43943 -49.75065 20126 ft 283 kts 218°
2026-05-05 15:22 -28.45534 -49.76379 20126 ft 283 kts 218°
2026-05-05 15:23 -28.47127 -49.77694 20126 ft 283 kts 218°
2026-05-05 15:23 -28.48718 -49.79008 20126 ft 283 kts 218°
2026-05-05 15:23 -28.50311 -49.80324 20125 ft 283 kts 218°
2026-05-05 15:23 -28.51901 -49.81639 20125 ft 283 kts 218°
2026-05-05 15:24 -28.53494 -49.82955 20124 ft 283 kts 218°
2026-05-05 15:24 -28.55083 -49.84270 20124 ft 283 kts 218°
2026-05-05 15:24 -28.56676 -49.85587 20124 ft 283 kts 218°
2026-05-05 15:24 -28.58265 -49.86903 20124 ft 283 kts 218°
2026-05-05 15:25 -28.59856 -49.88221 20124 ft 283 kts 218°
2026-05-05 15:25 -28.61447 -49.89538 20123 ft 283 kts 218°
2026-05-05 15:25 -28.63038 -49.90857 20123 ft 283 kts 218°
2026-05-05 15:25 -28.64628 -49.92175 20123 ft 283 kts 218°
2026-05-05 15:26 -28.66218 -49.93493 20122 ft 283 kts 218°
2026-05-05 15:26 -28.67808 -49.94813 20121 ft 283 kts 218°
2026-05-05 15:26 -28.69398 -49.96132 20121 ft 283 kts 218°
2026-05-05 15:26 -28.70987 -49.97451 20121 ft 283 kts 218°
2026-05-05 15:27 -28.72577 -49.98772 20121 ft 283 kts 218°
2026-05-05 15:27 -28.74167 -50.00092 20120 ft 283 kts 218°
2026-05-05 15:27 -28.75792 -50.01361 20120 ft 284 kts 216°
2026-05-05 15:27 -28.77451 -50.02577 20120 ft 284 kts 215°
2026-05-05 15:28 -28.79121 -50.03773 20120 ft 284 kts 214°
2026-05-05 15:28 -28.80794 -50.04963 20119 ft 284 kts 214°
2026-05-05 15:28 -28.82469 -50.06155 20119 ft 284 kts 214°
2026-05-05 15:28 -28.84139 -50.07349 20118 ft 284 kts 214°
2026-05-05 15:29 -28.85810 -50.08547 20118 ft 284 kts 214°
2026-05-05 15:29 -28.87478 -50.09749 20118 ft 284 kts 215°
2026-05-05 15:29 -28.89148 -50.10954 20118 ft 284 kts 215°
2026-05-05 15:29 -28.90813 -50.12160 20118 ft 284 kts 215°
2026-05-05 15:30 -28.92478 -50.13367 20120 ft 284 kts 215°
2026-05-05 15:30 -28.94144 -50.14577 20123 ft 285 kts 215°
2026-05-05 15:30 -28.95812 -50.15789 20125 ft 285 kts 215°
2026-05-05 15:30 -28.97481 -50.17004 20132 ft 285 kts 215°
2026-05-05 15:31 -28.99154 -50.18223 20136 ft 286 kts 215°
2026-05-05 15:31 -29.00834 -50.19448 20030 ft 289 kts 215°
2026-05-05 15:31 -29.02533 -50.20689 19707 ft 290 kts 215°
2026-05-05 15:31 -29.04181 -50.21890 19339 ft 277 kts 215°
2026-05-05 15:32 -29.05792 -50.23063 18955 ft 268 kts 215°
2026-05-05 15:32 -29.07345 -50.24196 18578 ft 263 kts 215°
2026-05-05 15:32 -29.08875 -50.25314 18202 ft 259 kts 215°
2026-05-05 15:32 -29.10380 -50.26415 17827 ft 256 kts 215°
2026-05-05 15:33 -29.11870 -50.27505 17451 ft 253 kts 215°
2026-05-05 15:33 -29.13342 -50.28583 17076 ft 251 kts 215°
2026-05-05 15:33 -29.14803 -50.29653 16701 ft 249 kts 215°
2026-05-05 15:33 -29.16249 -50.30713 16326 ft 247 kts 215°
2026-05-05 15:34 -29.17687 -50.31766 15951 ft 245 kts 215°
2026-05-05 15:34 -29.19114 -50.32813 15577 ft 243 kts 215°
2026-05-05 15:34 -29.20530 -50.33852 15202 ft 242 kts 215°
2026-05-05 15:34 -29.21937 -50.34884 14827 ft 240 kts 215°
2026-05-05 15:35 -29.23336 -50.35911 14452 ft 238 kts 215°
2026-05-05 15:35 -29.24728 -50.36931 14077 ft 237 kts 215°
2026-05-05 15:35 -29.26110 -50.37945 13702 ft 236 kts 216°
2026-05-05 15:35 -29.27482 -50.38952 13328 ft 234 kts 216°
2026-05-05 15:36 -29.28848 -50.39954 12953 ft 233 kts 216°
2026-05-05 15:36 -29.30205 -50.40951 12579 ft 232 kts 216°
2026-05-05 15:36 -29.31555 -50.41943 12204 ft 230 kts 216°
2026-05-05 15:36 -29.32897 -50.42930 11829 ft 229 kts 217°
2026-05-05 15:37 -29.34234 -50.43913 11455 ft 228 kts 217°
2026-05-05 15:37 -29.35563 -50.44890 11080 ft 227 kts 217°
2026-05-05 15:37 -29.36885 -50.45864 10706 ft 226 kts 217°
2026-05-05 15:37 -29.38201 -50.46832 10331 ft 225 kts 217°
2026-05-05 15:38 -29.39510 -50.47796 9956 ft 224 kts 217°
2026-05-05 15:38 -29.40812 -50.48756 9582 ft 223 kts 217°
2026-05-05 15:38 -29.42108 -50.49712 9207 ft 222 kts 217°
2026-05-05 15:38 -29.43399 -50.50663 8833 ft 221 kts 217°
2026-05-05 15:39 -29.44685 -50.51612 8458 ft 220 kts 217°
2026-05-05 15:39 -29.45963 -50.52554 8148 ft 216 kts 217°
2026-05-05 15:39 -29.47211 -50.53473 8037 ft 213 kts 217°
2026-05-05 15:39 -29.48462 -50.54397 8004 ft 215 kts 217°
2026-05-05 15:40 -29.49714 -50.55322 7997 ft 215 kts 217°
2026-05-05 15:40 -29.50970 -50.56251 7995 ft 215 kts 217°
2026-05-05 15:40 -29.52228 -50.57180 7995 ft 216 kts 217°
2026-05-05 15:40 -29.53488 -50.58112 7994 ft 216 kts 217°
2026-05-05 15:41 -29.54749 -50.59044 7993 ft 216 kts 217°
2026-05-05 15:41 -29.56009 -50.59975 7992 ft 216 kts 217°
2026-05-05 15:41 -29.57270 -50.60907 7992 ft 216 kts 217°
2026-05-05 15:41 -29.58531 -50.61840 7992 ft 216 kts 217°
2026-05-05 15:42 -29.59792 -50.62773 7996 ft 216 kts 217°
2026-05-05 15:42 -29.61052 -50.63706 7999 ft 216 kts 217°
2026-05-05 15:42 -29.62313 -50.64639 7999 ft 216 kts 217°
2026-05-05 15:42 -29.63572 -50.65572 7998 ft 216 kts 217°
2026-05-05 15:43 -29.64832 -50.66505 7998 ft 216 kts 217°
2026-05-05 15:43 -29.66091 -50.67438 7998 ft 216 kts 217°
2026-05-05 15:43 -29.67350 -50.68371 7998 ft 216 kts 217°
2026-05-05 15:43 -29.68608 -50.69304 7998 ft 216 kts 217°
2026-05-05 15:44 -29.69866 -50.70238 7998 ft 216 kts 217°
2026-05-05 15:44 -29.71099 -50.71211 7953 ft 216 kts 222°
2026-05-05 15:44 -29.72251 -50.72325 7770 ft 216 kts 226°
2026-05-05 15:44 -29.73368 -50.73487 7404 ft 217 kts 226°
2026-05-05 15:45 -29.74474 -50.74651 7029 ft 215 kts 226°
2026-05-05 15:45 -29.75574 -50.75799 6654 ft 213 kts 226°
2026-05-05 15:45 -29.76672 -50.76933 6280 ft 212 kts 225°
2026-05-05 15:45 -29.77771 -50.78056 5905 ft 211 kts 225°
2026-05-05 15:46 -29.78868 -50.79170 5531 ft 211 kts 225°
2026-05-05 15:46 -29.79965 -50.80279 5156 ft 210 kts 225°
2026-05-05 15:46 -29.81065 -50.81388 4782 ft 210 kts 225°
2026-05-05 15:46 -29.82163 -50.82494 4408 ft 211 kts 225°
2026-05-05 15:47 -29.83260 -50.83597 4130 ft 207 kts 225°
2026-05-05 15:47 -29.84316 -50.84661 4024 ft 197 kts 227°
2026-05-05 15:47 -29.85311 -50.85682 3994 ft 187 kts 226°
2026-05-05 15:47 -29.86274 -50.86640 3988 ft 179 kts 226°
2026-05-05 15:48 -29.87205 -50.87553 3992 ft 173 kts 226°
2026-05-05 15:48 -29.88119 -50.88427 3994 ft 169 kts 224°
2026-05-05 15:48 -29.89033 -50.89258 3995 ft 167 kts 224°
2026-05-05 15:48 -29.89942 -50.90074 3955 ft 167 kts 224°
2026-05-05 15:49 -29.90870 -50.90909 3834 ft 165 kts 224°
2026-05-05 15:49 -29.91736 -50.91674 3700 ft 154 kts 224°
2026-05-05 15:49 -29.92583 -50.92418 3516 ft 154 kts 224°
2026-05-05 15:49 -29.93433 -50.93164 3336 ft 153 kts 224°
2026-05-05 15:50 -29.94281 -50.93906 3154 ft 153 kts 224°
2026-05-05 15:50 -29.95129 -50.94648 2973 ft 153 kts 224°
2026-05-05 15:50 -29.95977 -50.95389 2792 ft 153 kts 224°
2026-05-05 15:50 -29.96825 -50.96130 2611 ft 153 kts 224°
2026-05-05 15:51 -29.97625 -50.96922 2413 ft 150 kts 237°
2026-05-05 15:51 -29.98096 -50.97963 2270 ft 146 kts 252°
2026-05-05 15:51 -29.98457 -50.99055 2141 ft 145 kts 259°
2026-05-05 15:51 -29.98365 -51.00167 2021 ft 137 kts 289°
2026-05-05 15:52 -29.98056 -51.01114 1964 ft 126 kts 294°
2026-05-05 15:52 -29.97724 -51.02055 1845 ft 121 kts 294°
2026-05-05 15:52 -29.97414 -51.02941 1699 ft 119 kts 294°
2026-05-05 15:52 -29.97104 -51.03816 1569 ft 117 kts 294°
2026-05-05 15:53 -29.96808 -51.04682 1437 ft 116 kts 291°
2026-05-05 15:53 -29.96508 -51.05541 1309 ft 116 kts 294°
2026-05-05 15:53 -29.96197 -51.06395 1181 ft 116 kts 294°
2026-05-05 15:53 -29.95898 -51.07255 1054 ft 116 kts 292°
2026-05-05 15:54 -29.95634 -51.08137 929 ft 117 kts 289°
2026-05-05 15:54 -29.95379 -51.09027 804 ft 117 kts 289°
2026-05-05 15:54 -29.95090 -51.09904 679 ft 117 kts 292°
2026-05-05 15:54 -29.94976 -51.10831 562 ft 119 kts 268°
2026-05-05 15:55 -29.95119 -51.11748 435 ft 111 kts 262°
2026-05-05 15:55 -29.95100 -51.12597 247 ft 103 kts 281°
2026-05-05 15:55 -29.94928 -51.13380 50 ft 99 kts 290°
2026-05-05 15:55 -29.94756 -51.13908 31 ft 31 kts 295°
2026-05-05 15:56 -29.94650 -51.14191 31 ft 17 kts 289°
2026-05-05 15:56 -29.94605 -51.14339 31 ft 24 kts 290°
2026-05-05 15:56 -29.94541 -51.14420 31 ft 8 kts
2026-05-05 15:56 -29.94528 -51.14417 31 ft 6 kts 15°
2026-05-05 15:57 -29.94433 -51.14381 31 ft 13 kts 17°
2026-05-05 15:57 -29.94366 -51.14464 31 ft 22 kts 287°
2026-05-05 15:57 -29.94343 -51.14542 31 ft 0 kts 292°
2026-05-05 15:57 -29.94288 -51.14716 31 ft 44 kts 288°
2026-05-05 15:58 -29.94192 -51.14901 31 ft 24 kts 312°
2026-05-05 15:58 -29.94122 -51.15022 31 ft 11 kts 304°
2026-05-05 15:58 -29.94062 -51.15019 31 ft 3 kts 360°
2026-05-05 15:58 -29.94049 -51.15031 31 ft 0 kts 289°